#timestamp,LO_Frequency,Hit,Temp,Hum 
1478242815.8,286046969.6,N,0.0,0.0
1478242835.7,286046971.1,N,0.0,0.0
1478242855.5,286046971.1,N,0.0,0.0
1478242875.3,286046969.7,N,0.0,0.0
1478242895.2,286046972.0,N,0.0,0.0
1478242915.0,286046972.2,N,0.0,0.0
1478242915.9,286046972.2,N,0.0,0.0
1478242935.8,286046969.7,N,0.0,0.0
1478242955.6,286046970.6,N,0.0,0.0
1478242975.4,286046967.9,N,0.0,0.0
1478242995.3,286046970.2,N,0.0,0.0
1478243015.1,286046969.9,N,0.0,0.0
1478243016.0,286046969.9,N,0.0,0.0
1478243035.8,286046969.9,N,0.0,0.0
1478243055.7,286046970.2,N,0.0,0.0
1478243075.5,286046970.0,N,0.0,0.0
1478243095.3,286046968.6,N,0.0,0.0
1478243115.2,286046970.6,N,0.0,0.0
1478243135.0,286046970.0,N,0.0,0.0
1478243135.9,286046970.0,N,0.0,0.0
1478243155.7,286046969.4,N,0.0,0.0
1478243175.6,286046967.9,N,0.0,0.0
1478243195.4,286046967.7,N,0.0,0.0
1478243215.3,286046970.0,N,0.0,0.0
1478243235.1,286046969.7,N,0.0,0.0
1478243236.0,286046969.7,N,0.0,0.0
1478243255.8,286046970.0,N,0.0,0.0
1478243275.7,286046971.6,N,0.0,0.0
1478243295.5,286046971.3,N,0.0,0.0
1478243315.3,286046969.7,N,0.0,0.0
1478243335.2,286046969.5,N,0.0,0.0
1478243355.9,286046972.3,N,0.0,0.0
1478243375.7,286046971.9,N,0.0,0.0
1478243395.6,286046969.5,N,0.0,0.0
1478243415.4,286046969.8,N,0.0,0.0
1478243435.2,286046971.1,N,0.0,0.0
1478243455.1,286046970.4,N,0.0,0.0
1478243456.0,286046970.4,N,0.0,0.0
1478243475.8,286046972.4,N,0.0,0.0
1478243495.7,286046969.6,N,0.0,0.0
1478243515.5,286046972.1,N,0.0,0.0
1478243535.3,286046971.7,N,0.0,0.0
1478243555.2,286046970.5,N,0.0,0.0
1478243575.9,286046969.8,N,0.0,0.0
1478243595.7,286046972.1,N,0.0,0.0
1478243615.6,286046972.0,N,0.0,0.0
1478243635.4,286046967.9,N,0.0,0.0
1478243655.2,286046968.5,N,0.0,0.0
1478243675.1,286046970.4,N,0.0,0.0
1478243676.0,286046970.4,N,0.0,0.0
1478243695.8,286046967.9,N,0.0,0.0
1478243715.6,286046968.7,N,0.0,0.0
1478243735.5,286046967.9,N,0.0,0.0
1478243755.3,286046968.5,N,0.0,0.0
1478243775.1,286046967.8,N,0.0,0.0
1478243795.9,286046968.5,N,0.0,0.0
1478243815.7,286046968.7,N,0.0,0.0
1478243835.6,286046968.7,N,0.0,0.0
1478243855.4,286046966.1,N,0.0,0.0
1478243875.2,286046966.4,N,0.0,0.0
1478243895.1,286046966.1,N,0.0,0.0
1478243896.0,286046966.1,N,0.0,0.0
1478243915.8,286046969.1,N,0.0,0.0
1478243935.6,286046968.9,N,0.0,0.0
1478243955.5,286046968.6,N,0.0,0.0
1478243975.3,286046968.8,N,0.0,0.0
1478243995.1,286046970.1,N,0.0,0.0
1478244015.9,286046969.8,N,0.0,0.0
1478244035.7,286046968.9,N,0.0,0.0
1478244055.5,286046969.0,N,0.0,0.0
1478244075.4,286046966.4,N,0.0,0.0
1478244095.2,286046967.0,N,0.0,0.0
1478244115.0,286046969.2,N,0.0,0.0
1478244116.0,286046969.2,N,0.0,0.0
1478244135.8,286046968.4,N,0.0,0.0
1478244155.6,286046970.2,N,0.0,0.0
1478244175.5,286046969.6,N,0.0,0.0
1478244195.3,286046968.0,N,0.0,0.0
1478244215.1,286046968.4,N,0.0,0.0
1478244235.9,286046968.8,N,0.0,0.0
1478244255.7,286046968.3,N,0.0,0.0
1478244275.5,286046967.8,N,0.0,0.0
1478244295.4,286046968.5,N,0.0,0.0
1478244315.2,286046971.9,N,0.0,0.0
1478244335.0,286046969.8,N,0.0,0.0
1478244335.9,286046969.8,N,0.0,0.0
1478244355.8,286046969.1,N,0.0,0.0
1478244375.6,286046969.1,N,0.0,0.0
1478244395.4,286046968.1,N,0.0,0.0
1478244415.3,286046966.1,N,0.0,0.0
1478244435.1,286046968.1,N,0.0,0.0
1478244455.9,286046966.9,N,0.0,0.0
1478244475.7,286046967.1,N,0.0,0.0
1478244495.5,286046966.5,N,0.0,0.0
1478244515.4,286046968.9,N,0.0,0.0
1478244535.2,286046970.5,N,0.0,0.0
1478244555.0,286046968.4,N,0.0,0.0
1478244555.9,286046968.4,N,0.0,0.0
1478244575.8,286046969.5,N,0.0,0.0
1478244595.6,286046972.3,N,0.0,0.0
1478244615.4,286046972.3,N,0.0,0.0
1478244635.3,286046969.6,N,0.0,0.0
1478244655.1,286046969.5,N,0.0,0.0
1478244675.8,286046968.3,N,0.0,0.0
1478244695.7,286046968.6,N,0.0,0.0
1478244715.5,286046970.4,N,0.0,0.0
1478244735.3,286046963.3,N,0.0,0.0
1478244755.2,286046970.4,N,0.0,0.0
1478244775.0,286046966.8,N,0.0,0.0
1478244775.9,286046966.8,N,0.0,0.0
1478244795.8,286046966.2,N,0.0,0.0
1478244815.6,286046970.7,N,0.0,0.0
1478244835.4,286046967.0,N,0.0,0.0
1478244855.3,286046967.3,N,0.0,0.0
1478244875.1,286046967.4,N,0.0,0.0
1478244895.8,286046964.6,N,0.0,0.0
1478244915.7,286046965.7,N,0.0,0.0
1478244935.5,286046965.1,N,0.0,0.0
1478244955.3,286046963.2,N,0.0,0.0
1478244975.2,286046965.0,N,0.0,0.0
1478244995.0,286046964.5,N,0.0,0.0
1478244995.9,286046964.5,N,0.0,0.0
1478245015.8,286046966.5,N,0.0,0.0
1478245035.6,286046967.7,N,0.0,0.0
1478245055.4,286046968.2,N,0.0,0.0
1478245075.3,286046966.8,N,0.0,0.0
1478245095.1,286046967.3,N,0.0,0.0
1478245096.0,286046967.3,N,0.0,0.0
1478245115.8,286046964.9,N,0.0,0.0
1478245135.7,286046967.3,N,0.0,0.0
1478245155.5,286046966.5,N,0.0,0.0
1478245175.3,286046966.3,N,0.0,0.0
1478245195.2,286046966.3,N,0.0,0.0
1478245215.9,286046968.7,N,0.0,0.0
1478245235.7,286046966.6,N,0.0,0.0
1478245255.6,286046968.7,N,0.0,0.0
1478245275.4,286046966.4,N,0.0,0.0
1478245295.2,286046966.4,N,0.0,0.0
1478245315.1,286046965.1,N,0.0,0.0
1478245316.0,286046965.1,N,0.0,0.0
1478245335.8,286046965.2,N,0.0,0.0
1478245355.7,286046964.6,N,0.0,0.0
1478245375.5,286046966.4,N,0.0,0.0
1478245395.3,286046966.7,N,0.0,0.0
1478245415.2,286046966.1,N,0.0,0.0
1478245435.9,286046968.0,N,0.0,0.0
1478245455.7,286046970.5,N,0.0,0.0
1478245475.6,286046970.6,N,0.0,0.0
1478245495.4,286046970.7,N,0.0,0.0
1478245515.2,286046970.6,N,0.0,0.0
1478245535.1,286046971.7,N,0.0,0.0
1478245536.0,286046971.7,N,0.0,0.0
1478245555.8,286046969.7,N,0.0,0.0
1478245575.6,286046975.6,N,0.0,0.0
1478245595.5,286046972.4,N,0.0,0.0
1478245615.3,286046968.8,N,0.0,0.0
1478245635.1,286046968.2,N,0.0,0.0
1478245655.9,286046972.9,N,0.0,0.0
1478245675.7,286046969.1,N,0.0,0.0
1478245695.6,286046968.3,N,0.0,0.0
1478245715.4,286046968.3,N,0.0,0.0
1478245735.2,286046969.1,N,0.0,0.0
1478245755.1,286046968.2,N,0.0,0.0
1478245756.0,286046968.2,N,0.0,0.0
1478245775.8,286046969.9,N,0.0,0.0
1478245795.6,286046968.5,N,0.0,0.0
1478245815.5,286046966.4,N,0.0,0.0
1478245835.3,286046966.6,N,0.0,0.0
1478245855.1,286046967.2,N,0.0,0.0
1478245875.9,286046967.1,N,0.0,0.0
1478245895.7,286046967.1,N,0.0,0.0
1478245915.5,286046964.9,N,0.0,0.0
1478245935.4,286046967.4,N,0.0,0.0
1478245955.2,286046966.8,N,0.0,0.0
1478245975.0,286046966.3,N,0.0,0.0
1478245976.0,286046966.3,N,0.0,0.0
1478245995.8,286046967.0,N,0.0,0.0
1478246015.6,286046969.2,N,0.0,0.0
1478246035.5,286046966.6,N,0.0,0.0
1478246055.3,286046967.4,N,0.0,0.0
1478246075.1,286046966.9,N,0.0,0.0
1478246095.9,286046966.4,N,0.0,0.0
1478246115.7,286046969.0,N,0.0,0.0
1478246135.5,286046968.8,N,0.0,0.0
1478246155.4,286046966.1,N,0.0,0.0
1478246175.2,286046970.7,N,0.0,0.0
1478246195.0,286046972.1,N,0.0,0.0
1478246195.9,286046972.1,N,0.0,0.0
1478246215.8,286046970.2,N,0.0,0.0
1478246235.6,286046970.4,N,0.0,0.0
1478246255.5,286046968.6,N,0.0,0.0
1478246275.3,286046966.6,N,0.0,0.0
1478246295.1,286046965.8,N,0.0,0.0
1478246315.9,286046967.0,N,0.0,0.0
1478246335.7,286046968.7,N,0.0,0.0
1478246355.5,286046968.5,N,0.0,0.0
1478246375.4,286046968.3,N,0.0,0.0
1478246395.2,286046967.7,N,0.0,0.0
